Tracking 30009 objects as of 7-Dec-2024
HD Live streaming from Space Station
objects crossing your sky now

SMDC ONE 1.1

Track SMDC ONE 1.1 now!
10-day predictions
SMDC ONE 1.1 is classified as:


NORAD ID: 38766
Int'l Code: 2012-048J
Perigee: 409.8 km
Apogee: 536.8 km
Inclination: 64.6 °
Period: 93.9 minutes
Semi major axis: 6844 km
RCS: Unknown
Launch date: September 13, 2012
Source: United States (US)
Launch site: AIR FORCE WESTERN TEST RANGE (AFWTR)
Your satellite tracking list
Your tracking list is empty




NASA's NSSDC Master Catalog

Two Line Element Set (TLE):
1 38766U 12048J   24342.49386274  .00050375  00000-0  13561-2 0  9991
2 38766  64.6470  61.2785 0092790 320.9990  38.4473 15.33239525 34382
Source of the keplerian elements: AFSPC